Time,TemperatureF,DewpointF,PressureIn,WindDirection,WindDirectionDegrees,WindSpeedMPH,WindSpeedGustMPH,Humidity,HourlyPrecipIn,Conditions,Clouds,dailyrainin,SoftwareType,DateUTC
2013-03-18 00:00:00,22.1,4.4,29.96,North,0,0.4,0.4,46,0.00,,,0.00,WUHU216HW,2013-03-18 04:00:00,
2013-03-18 00:05:00,22.1,4.4,29.96,North,0,0.4,0.4,46,0.00,,,0.00,WUHU216HW,2013-03-18 04:05:00,
2013-03-18 00:30:00,21.4,4.1,29.97,WNW,293,1.8,1.8,47,0.00,,,0.00,WUHU216HW,2013-03-18 04:30:00,
2013-03-18 00:35:00,21.4,4.1,29.97,WNW,293,1.8,1.8,47,0.00,,,0.00,WUHU216HW,2013-03-18 04:35:00,
2013-03-18 01:00:00,19.8,4.2,29.98,North,0,1.1,1.1,50,0.00,,,0.00,WUHU216HW,2013-03-18 05:00:00,
2013-03-18 01:05:00,19.8,4.2,29.98,North,0,1.1,1.1,50,0.00,,,0.00,WUHU216HW,2013-03-18 05:05:00,
2013-03-18 01:30:00,20.3,5.4,29.99,NNE,23,2.5,2.5,52,0.00,,,0.00,WUHU216HW,2013-03-18 05:30:00,
2013-03-18 01:35:00,20.3,5.4,29.99,NNE,23,2.5,2.5,52,0.00,,,0.00,WUHU216HW,2013-03-18 05:35:00,
2013-03-18 02:00:00,18.4,3.3,30.00,ESE,113,1.3,1.3,51,0.00,,,0.00,WUHU216HW,2013-03-18 06:00:00,
2013-03-18 02:05:00,18.4,3.3,30.00,ESE,113,1.3,1.3,51,0.00,,,0.00,WUHU216HW,2013-03-18 06:05:00,
2013-03-18 02:30:00,17.8,3.5,30.01,SE,135,0.4,0.4,53,0.00,,,0.00,WUHU216HW,2013-03-18 06:30:00,
2013-03-18 02:35:00,17.8,3.5,30.01,SE,135,0.4,0.4,53,0.00,,,0.00,WUHU216HW,2013-03-18 06:35:00,
2013-03-18 03:00:00,18.2,4.6,30.02,NE,45,0.9,0.9,55,0.00,,,0.00,WUHU216HW,2013-03-18 07:00:00,
2013-03-18 03:05:00,18.2,4.6,30.02,NE,45,0.9,0.9,55,0.00,,,0.00,WUHU216HW,2013-03-18 07:05:00,
2013-03-18 03:30:00,16.6,3.2,30.02,NNW,338,0.0,0.0,55,0.00,,,0.00,WUHU216HW,2013-03-18 07:30:00,
2013-03-18 03:35:00,16.6,3.2,30.02,NNW,338,0.0,0.0,55,0.00,,,0.00,WUHU216HW,2013-03-18 07:35:00,
2013-03-18 04:00:00,16.7,4.1,30.01,NNE,23,0.4,0.4,57,0.00,,,0.00,WUHU216HW,2013-03-18 08:00:00,
2013-03-18 04:05:00,16.7,4.1,30.01,NNE,23,0.4,0.4,57,0.00,,,0.00,WUHU216HW,2013-03-18 08:05:00,
2013-03-18 04:30:00,16.2,3.5,30.02,North,0,0.0,0.0,57,0.00,,,0.00,WUHU216HW,2013-03-18 08:30:00,
2013-03-18 04:35:00,16.2,3.5,30.02,North,0,0.0,0.0,57,0.00,,,0.00,WUHU216HW,2013-03-18 08:35:00,
2013-03-18 05:00:00,16.2,3.5,30.01,North,0,0.4,0.4,57,0.00,,,0.00,WUHU216HW,2013-03-18 09:00:00,
2013-03-18 05:05:00,16.2,3.5,30.01,North,0,0.4,0.4,57,0.00,,,0.00,WUHU216HW,2013-03-18 09:05:00,
2013-03-18 05:30:00,16.2,3.5,30.02,North,0,0.0,0.0,57,0.00,,,0.00,WUHU216HW,2013-03-18 09:30:00,
2013-03-18 05:35:00,16.2,3.5,30.02,North,0,0.0,0.0,57,0.00,,,0.00,WUHU216HW,2013-03-18 09:35:00,
2013-03-18 06:00:00,16.0,3.0,30.03,North,0,0.0,0.0,56,0.00,,,0.00,WUHU216HW,2013-03-18 10:00:00,
2013-03-18 06:05:00,16.0,3.0,30.03,North,0,0.0,0.0,56,0.00,,,0.00,WUHU216HW,2013-03-18 10:05:00,
2013-03-18 06:30:00,14.9,2.3,30.04,NNE,23,0.0,0.0,57,0.00,,,0.00,WUHU216HW,2013-03-18 10:30:00,
2013-03-18 06:35:00,14.9,2.3,30.04,NNE,23,0.0,0.0,57,0.00,,,0.00,WUHU216HW,2013-03-18 10:35:00,
2013-03-18 07:00:00,15.1,3.3,30.05,North,0,1.1,1.1,59,0.00,,,0.00,WUHU216HW,2013-03-18 11:00:00,
2013-03-18 07:05:00,15.1,3.3,30.05,North,0,1.1,1.1,59,0.00,,,0.00,WUHU216HW,2013-03-18 11:05:00,
2013-03-18 07:30:00,14.9,2.7,30.07,North,0,0.0,0.0,58,0.00,,,0.00,WUHU216HW,2013-03-18 11:30:00,
2013-03-18 07:35:00,14.9,2.7,30.07,North,0,0.0,0.0,58,0.00,,,0.00,WUHU216HW,2013-03-18 11:35:00,
2013-03-18 08:00:00,16.9,5.1,30.07,NNW,338,1.1,1.1,59,0.00,,,0.00,WUHU216HW,2013-03-18 12:00:00,
2013-03-18 08:05:00,16.9,5.1,30.07,NNW,338,1.1,1.1,59,0.00,,,0.00,WUHU216HW,2013-03-18 12:05:00,
2013-03-18 08:30:00,18.9,6.8,30.07,North,0,2.5,2.5,59,0.00,,,0.00,WUHU216HW,2013-03-18 12:30:00,
2013-03-18 08:35:00,18.9,6.8,30.07,North,0,2.5,2.5,59,0.00,,,0.00,WUHU216HW,2013-03-18 12:35:00,
2013-03-18 09:00:00,21.1,7.3,30.06,NNW,338,0.7,0.7,55,0.00,,,0.00,WUHU216HW,2013-03-18 13:00:00,
2013-03-18 09:05:00,21.1,7.3,30.06,NNW,338,0.7,0.7,55,0.00,,,0.00,WUHU216HW,2013-03-18 13:05:00,
2013-03-18 09:30:00,23.0,8.4,30.05,NNW,338,0.0,0.0,53,0.00,,,0.00,WUHU216HW,2013-03-18 13:30:00,
2013-03-18 09:35:00,23.0,8.4,30.05,NNW,338,0.0,0.0,53,0.00,,,0.00,WUHU216HW,2013-03-18 13:35:00,
2013-03-18 10:00:00,25.7,7.7,30.04,SE,135,2.7,2.7,46,0.00,,,0.00,WUHU216HW,2013-03-18 14:00:00,
2013-03-18 10:05:00,25.7,7.7,30.04,SE,135,2.7,2.7,46,0.00,,,0.00,WUHU216HW,2013-03-18 14:05:00,
2013-03-18 10:30:00,26.3,6.8,30.02,ENE,68,3.6,3.6,43,0.00,,,0.00,WUHU216HW,2013-03-18 14:30:00,
2013-03-18 10:35:00,26.3,6.8,30.02,ENE,68,3.6,3.6,43,0.00,,,0.00,WUHU216HW,2013-03-18 14:35:00,
2013-03-18 11:00:00,28.1,7.4,30.02,ESE,113,1.8,1.8,41,0.00,,,0.00,WUHU216HW,2013-03-18 15:00:00,
2013-03-18 11:05:00,28.1,7.4,30.02,ESE,113,1.8,1.8,41,0.00,,,0.00,WUHU216HW,2013-03-18 15:05:00,
2013-03-18 11:30:00,29.2,7.2,30.00,North,0,2.2,2.2,39,0.00,,,0.00,WUHU216HW,2013-03-18 15:30:00,
2013-03-18 11:35:00,29.2,7.2,30.00,North,0,2.2,2.2,39,0.00,,,0.00,WUHU216HW,2013-03-18 15:35:00,
2013-03-18 12:00:00,31.3,7.9,30.00,SE,135,0.9,0.9,37,0.00,,,0.00,WUHU216HW,2013-03-18 16:00:00,
2013-03-18 12:05:00,31.3,7.9,30.00,SE,135,0.9,0.9,37,0.00,,,0.00,WUHU216HW,2013-03-18 16:05:00,
2013-03-18 12:30:00,33.3,7.2,29.99,SSE,158,4.7,4.7,33,0.00,,,0.00,WUHU216HW,2013-03-18 16:30:00,
2013-03-18 12:35:00,33.3,7.2,29.99,SSE,158,4.7,4.7,33,0.00,,,0.00,WUHU216HW,2013-03-18 16:35:00,
2013-03-18 12:36:00,33.3,7.2,29.99,SSE,158,4.7,4.7,33,0.00,,,0.00,WUHU216HW,2013-03-18 16:36:00,
2013-03-18 13:00:00,36.0,8.8,29.98,ENE,68,1.1,1.1,32,0.00,,,0.00,WUHU216HW,2013-03-18 17:00:00,
2013-03-18 13:05:00,36.0,8.8,29.98,ENE,68,1.1,1.1,32,0.00,,,0.00,WUHU216HW,2013-03-18 17:05:00,
2013-03-18 13:30:00,36.4,9.2,29.96,ESE,113,2.5,2.5,32,0.00,,,0.00,WUHU216HW,2013-03-18 17:30:00,
2013-03-18 13:35:00,36.4,9.2,29.96,ESE,113,2.5,2.5,32,0.00,,,0.00,WUHU216HW,2013-03-18 17:35:00,
2013-03-18 14:00:00,38.2,10.1,29.94,SSE,158,3.4,3.4,31,0.00,,,0.00,WUHU216HW,2013-03-18 18:00:00,
2013-03-18 14:05:00,38.2,10.1,29.94,SSE,158,3.4,3.4,31,0.00,,,0.00,WUHU216HW,2013-03-18 18:05:00,
2013-03-18 14:30:00,37.1,9.2,29.93,SE,135,1.8,1.8,31,0.00,,,0.00,WUHU216HW,2013-03-18 18:30:00,
2013-03-18 14:35:00,37.1,9.2,29.93,SE,135,1.8,1.8,31,0.00,,,0.00,WUHU216HW,2013-03-18 18:35:00,
2013-03-18 15:00:00,38.0,10.0,29.91,South,180,2.9,2.9,31,0.00,,,0.00,WUHU216HW,2013-03-18 19:00:00,
2013-03-18 15:05:00,38.0,10.0,29.91,South,180,2.9,2.9,31,0.00,,,0.00,WUHU216HW,2013-03-18 19:05:00,
2013-03-18 15:06:00,38.0,10.0,29.91,South,180,2.9,2.9,31,0.00,,,0.00,WUHU216HW,2013-03-18 19:06:00,
2013-03-18 15:30:00,38.2,10.1,29.88,SSE,158,7.4,7.4,31,0.00,,,0.00,WUHU216HW,2013-03-18 19:30:00,
2013-03-18 15:35:00,38.2,10.1,29.88,SSE,158,7.4,7.4,31,0.00,,,0.00,WUHU216HW,2013-03-18 19:35:00,
2013-03-18 15:37:00,38.2,10.1,29.88,SSE,158,7.4,7.4,31,0.00,,,0.00,WUHU216HW,2013-03-18 19:37:00,
2013-03-18 16:00:00,37.4,10.1,29.87,SSE,158,4.3,4.3,32,0.00,,,0.00,WUHU216HW,2013-03-18 20:00:00,
2013-03-18 16:05:00,37.4,10.1,29.87,SSE,158,4.3,4.3,32,0.00,,,0.00,WUHU216HW,2013-03-18 20:05:00,
2013-03-18 16:30:00,36.7,10.1,29.87,SSE,158,5.1,5.1,33,0.00,,,0.00,WUHU216HW,2013-03-18 20:30:00,
2013-03-18 16:35:00,36.7,10.1,29.87,SSE,158,5.1,5.1,33,0.00,,,0.00,WUHU216HW,2013-03-18 20:35:00,
2013-03-18 17:00:00,35.6,9.8,29.86,SE,135,7.6,7.6,34,0.00,,,0.00,WUHU216HW,2013-03-18 21:00:00,
2013-03-18 17:05:00,35.6,9.8,29.86,SE,135,7.6,7.6,34,0.00,,,0.00,WUHU216HW,2013-03-18 21:05:00,
2013-03-18 17:06:00,35.6,9.8,29.86,SE,135,7.6,7.6,34,0.00,,,0.00,WUHU216HW,2013-03-18 21:06:00,
2013-03-18 17:30:00,34.7,9.7,29.84,SE,135,3.4,3.4,35,0.00,,,0.00,WUHU216HW,2013-03-18 21:30:00,
2013-03-18 17:35:00,34.7,9.7,29.84,SE,135,3.4,3.4,35,0.00,,,0.00,WUHU216HW,2013-03-18 21:35:00,
2013-03-18 18:00:00,34.2,10.4,29.83,SSE,158,6.0,6.0,37,0.00,,,0.00,WUHU216HW,2013-03-18 22:00:00,
2013-03-18 18:05:00,34.2,10.4,29.83,SSE,158,6.0,6.0,37,0.00,,,0.00,WUHU216HW,2013-03-18 22:05:00,
2013-03-18 18:06:00,34.2,10.4,29.83,SSE,158,6.0,6.0,37,0.00,,,0.00,WUHU216HW,2013-03-18 22:06:00,
2013-03-18 18:30:00,33.5,11.7,29.82,South,180,9.8,9.8,40,0.00,,,0.00,WUHU216HW,2013-03-18 22:30:00,
2013-03-18 18:35:00,33.5,11.7,29.82,South,180,9.8,9.8,40,0.00,,,0.00,WUHU216HW,2013-03-18 22:35:00,
2013-03-18 19:00:00,32.2,13.2,29.81,South,180,3.4,3.4,45,0.00,,,0.00,WUHU216HW,2013-03-18 23:00:00,
2013-03-18 19:05:00,32.2,13.2,29.81,South,180,3.4,3.4,45,0.00,,,0.00,WUHU216HW,2013-03-18 23:05:00,
2013-03-18 19:30:00,28.8,19.6,29.81,SSW,203,4.7,4.7,68,0.00,,,0.00,WUHU216HW,2013-03-18 23:30:00,
2013-03-18 19:35:00,28.8,19.6,29.81,SSW,203,4.7,4.7,68,0.00,,,0.00,WUHU216HW,2013-03-18 23:35:00,
2013-03-18 20:00:00,27.9,19.4,29.81,SSE,158,2.5,2.5,70,0.00,,,0.00,WUHU216HW,2013-03-19 00:00:00,
2013-03-18 20:05:00,27.9,19.4,29.81,SSE,158,2.5,2.5,70,0.00,,,0.00,WUHU216HW,2013-03-19 00:05:00,
2013-03-18 20:30:00,27.5,20.6,29.80,SE,135,2.9,2.9,75,0.00,,,0.00,WUHU216HW,2013-03-19 00:30:00,
2013-03-18 20:35:00,27.5,20.6,29.80,SE,135,2.9,2.9,75,0.00,,,0.00,WUHU216HW,2013-03-19 00:35:00,
2013-03-18 21:00:00,27.2,21.8,29.79,SE,135,6.3,6.3,80,0.00,,,0.00,WUHU216HW,2013-03-19 01:00:00,
2013-03-18 21:01:00,27.2,21.8,29.79,SE,135,6.3,6.3,80,0.00,,,0.00,WUHU216HW,2013-03-19 01:01:00,
2013-03-18 21:05:00,27.2,21.8,29.79,SE,135,6.3,6.3,80,0.00,,,0.00,WUHU216HW,2013-03-19 01:05:00,
2013-03-18 21:06:00,27.2,21.8,29.79,SE,135,6.3,6.3,80,0.00,,,0.00,WUHU216HW,2013-03-19 01:06:00,
2013-03-18 21:30:00,26.8,21.7,29.78,SE,135,5.4,5.4,81,0.00,,,0.00,WUHU216HW,2013-03-19 01:30:00,
2013-03-18 21:35:00,26.8,21.7,29.78,SE,135,5.4,5.4,81,0.00,,,0.00,WUHU216HW,2013-03-19 01:35:00,
2013-03-18 22:00:00,26.3,21.3,29.78,SSE,158,8.3,8.3,81,0.00,,,0.00,WUHU216HW,2013-03-19 02:00:00,
2013-03-18 22:05:00,26.3,21.3,29.78,SSE,158,8.3,8.3,81,0.00,,,0.00,WUHU216HW,2013-03-19 02:05:00,
2013-03-18 22:30:00,26.3,21.3,29.78,SSE,158,2.7,2.7,81,0.00,,,0.00,WUHU216HW,2013-03-19 02:30:00,
2013-03-18 22:35:00,26.3,21.3,29.78,SSE,158,2.7,2.7,81,0.00,,,0.00,WUHU216HW,2013-03-19 02:35:00,
2013-03-18 23:00:00,26.1,21.3,29.76,SE,135,2.5,2.5,82,0.00,,,0.00,WUHU216HW,2013-03-19 03:00:00,
2013-03-18 23:05:00,26.1,21.3,29.76,SE,135,2.5,2.5,82,0.00,,,0.00,WUHU216HW,2013-03-19 03:05:00,
2013-03-18 23:30:00,26.1,21.3,29.74,ESE,113,3.1,3.1,82,0.00,,,0.00,WUHU216HW,2013-03-19 03:30:00,
2013-03-18 23:35:00,26.1,21.3,29.74,ESE,113,3.1,3.1,82,0.00,,,0.00,WUHU216HW,2013-03-19 03:35:00,